Year,Month,Day,Hour,Minute,Value (Times are PST for temperature in C)
2012,10,11,00,00,9.90
2012,10,11,00,01,9.90
2012,10,11,00,02,9.90
2012,10,11,00,03,9.90
2012,10,11,00,04,9.90
2012,10,11,00,05,9.90
2012,10,11,00,06,9.90
2012,10,11,00,07,9.90
2012,10,11,00,08,9.90
2012,10,11,00,09,9.90
2012,10,11,00,10,9.90
2012,10,11,00,11,9.90
2012,10,11,00,12,9.90
2012,10,11,00,13,9.90
2012,10,11,00,14,9.90
2012,10,11,00,15,9.90
2012,10,11,00,16,9.90
2012,10,11,00,17,9.90
2012,10,11,00,18,9.90
2012,10,11,00,19,9.90
2012,10,11,00,20,9.90
2012,10,11,00,21,9.90
2012,10,11,00,22,9.90
2012,10,11,00,23,9.90
2012,10,11,00,24,9.90
2012,10,11,00,25,9.90
2012,10,11,00,26,9.90
2012,10,11,00,27,9.90
2012,10,11,00,28,9.80
2012,10,11,00,29,9.80
2012,10,11,00,30,9.80
2012,10,11,00,31,9.80
2012,10,11,00,32,9.80
2012,10,11,00,33,9.80
2012,10,11,00,34,9.80
2012,10,11,00,35,9.80
2012,10,11,00,36,9.80
2012,10,11,00,37,9.80
2012,10,11,00,38,9.80
2012,10,11,00,39,9.80
2012,10,11,00,40,9.80
2012,10,11,00,41,9.80
2012,10,11,00,42,9.80
2012,10,11,00,43,9.80
2012,10,11,00,44,9.80
2012,10,11,00,45,9.80
2012,10,11,00,46,9.80
2012,10,11,00,47,9.80
2012,10,11,00,48,9.80
2012,10,11,00,49,9.80
2012,10,11,00,50,9.80
2012,10,11,00,51,9.80
2012,10,11,00,52,9.80
2012,10,11,00,53,9.80
2012,10,11,00,54,9.80
2012,10,11,00,55,9.80
2012,10,11,00,56,9.80
2012,10,11,00,57,9.80
2012,10,11,00,58,9.80
2012,10,11,00,59,9.80
2012,10,11,01,00,9.80
2012,10,11,01,01,9.80
2012,10,11,01,02,9.80
2012,10,11,01,03,9.80
2012,10,11,01,04,9.80
2012,10,11,01,05,9.80
2012,10,11,01,06,9.70
2012,10,11,01,07,9.80
2012,10,11,01,08,9.70
2012,10,11,01,09,9.70
2012,10,11,01,10,9.70
2012,10,11,01,11,9.70
2012,10,11,01,12,9.70
2012,10,11,01,13,9.70
2012,10,11,01,14,9.70
2012,10,11,01,15,9.70
2012,10,11,01,16,9.70
2012,10,11,01,17,9.70
2012,10,11,01,18,9.70
2012,10,11,01,19,9.70
2012,10,11,01,20,9.70
2012,10,11,01,21,9.80
2012,10,11,01,22,9.80
2012,10,11,01,23,9.70
2012,10,11,01,24,9.70
2012,10,11,01,25,9.70
2012,10,11,01,26,9.70
2012,10,11,01,27,9.70
2012,10,11,01,28,9.70
2012,10,11,01,29,9.70
2012,10,11,01,30,9.70
2012,10,11,01,31,9.70
2012,10,11,01,32,9.70
2012,10,11,01,33,9.70
2012,10,11,01,34,9.70
2012,10,11,01,35,9.70
2012,10,11,01,36,9.70
2012,10,11,01,37,9.70
2012,10,11,01,38,9.70
2012,10,11,01,39,9.70
2012,10,11,01,40,9.70
2012,10,11,01,41,9.70
2012,10,11,01,42,9.70
2012,10,11,01,43,9.70
2012,10,11,01,44,9.70
2012,10,11,01,45,9.70
2012,10,11,01,46,9.70
2012,10,11,01,47,9.70
2012,10,11,01,48,9.70
2012,10,11,01,49,9.70
2012,10,11,01,50,9.60
2012,10,11,01,51,9.60
2012,10,11,01,52,9.70
2012,10,11,01,53,9.60
2012,10,11,01,54,9.70
2012,10,11,01,55,9.70
2012,10,11,01,56,9.70
2012,10,11,01,57,9.70
2012,10,11,01,58,9.70
2012,10,11,01,59,9.70
2012,10,11,02,00,9.70
2012,10,11,02,01,9.70
2012,10,11,02,02,9.70
2012,10,11,02,03,9.70
2012,10,11,02,04,9.70
2012,10,11,02,05,9.70
2012,10,11,02,06,9.70
2012,10,11,02,07,9.70
2012,10,11,02,08,9.60
2012,10,11,02,09,9.60
2012,10,11,02,10,9.60
2012,10,11,02,11,9.60
2012,10,11,02,12,9.60
2012,10,11,02,13,9.60
2012,10,11,02,14,9.60
2012,10,11,02,15,9.60
2012,10,11,02,16,9.60
2012,10,11,02,17,9.60
2012,10,11,02,18,9.60
2012,10,11,02,19,9.60
2012,10,11,02,20,9.60
2012,10,11,02,21,9.60
2012,10,11,02,22,9.60
2012,10,11,02,23,9.60
2012,10,11,02,24,9.60
2012,10,11,02,25,9.60
2012,10,11,02,26,9.60
2012,10,11,02,27,9.60
2012,10,11,02,28,9.60
2012,10,11,02,29,9.60
2012,10,11,02,30,9.60
2012,10,11,02,31,9.60
2012,10,11,02,32,9.60
2012,10,11,02,33,9.60
2012,10,11,02,34,9.60
2012,10,11,02,35,9.60
2012,10,11,02,36,9.60
2012,10,11,02,37,9.60
2012,10,11,02,38,9.60
2012,10,11,02,39,9.60
2012,10,11,02,40,9.60
2012,10,11,02,41,9.60
2012,10,11,02,42,9.60
2012,10,11,02,43,9.60
2012,10,11,02,44,9.60
2012,10,11,02,45,9.60
2012,10,11,02,46,9.50
2012,10,11,02,47,9.50
2012,10,11,02,48,9.60
2012,10,11,02,49,9.60
2012,10,11,02,50,9.60
2012,10,11,02,51,9.60
2012,10,11,02,52,9.60
2012,10,11,02,53,9.50
2012,10,11,02,54,9.50
2012,10,11,02,55,9.50
2012,10,11,02,56,9.50
2012,10,11,02,57,9.50
2012,10,11,02,58,9.50
2012,10,11,02,59,9.50
2012,10,11,03,00,9.50
2012,10,11,03,01,9.50
2012,10,11,03,02,9.50
2012,10,11,03,03,9.40
2012,10,11,03,04,9.40
2012,10,11,03,05,9.40
2012,10,11,03,06,9.40
2012,10,11,03,07,9.40
2012,10,11,03,08,9.40
2012,10,11,03,09,9.40
2012,10,11,03,10,9.40
2012,10,11,03,11,9.40
2012,10,11,03,12,9.40
2012,10,11,03,13,9.40
2012,10,11,03,14,9.40
2012,10,11,03,15,9.40
2012,10,11,03,16,9.40
2012,10,11,03,17,9.40
2012,10,11,03,18,9.40
2012,10,11,03,19,9.40
2012,10,11,03,20,9.40
2012,10,11,03,21,9.40
2012,10,11,03,22,9.40
2012,10,11,03,23,9.40
2012,10,11,03,24,9.40
2012,10,11,03,25,9.40
2012,10,11,03,26,9.40
2012,10,11,03,27,9.40
2012,10,11,03,28,9.40
2012,10,11,03,29,9.40
2012,10,11,03,30,9.40
2012,10,11,03,31,9.30
2012,10,11,03,32,9.30
2012,10,11,03,33,9.30
2012,10,11,03,34,9.30
2012,10,11,03,35,9.30
2012,10,11,03,36,9.30
2012,10,11,03,37,9.30
2012,10,11,03,38,9.30
2012,10,11,03,39,9.30
2012,10,11,03,40,9.30
2012,10,11,03,41,9.30
2012,10,11,03,42,9.30
2012,10,11,03,43,9.30
2012,10,11,03,44,9.30
2012,10,11,03,45,9.30
2012,10,11,03,46,9.30
2012,10,11,03,47,9.30
2012,10,11,03,48,9.30
2012,10,11,03,49,9.20
2012,10,11,03,50,9.20
2012,10,11,03,51,9.20
2012,10,11,03,52,9.20
2012,10,11,03,53,9.20
2012,10,11,03,54,9.20
2012,10,11,03,55,9.20
2012,10,11,03,56,9.20
2012,10,11,03,57,9.20
2012,10,11,03,58,9.20
2012,10,11,03,59,9.20
2012,10,11,04,00,9.20
2012,10,11,04,01,9.20
2012,10,11,04,02,9.20
2012,10,11,04,03,9.10
2012,10,11,04,04,9.10
2012,10,11,04,05,9.10
2012,10,11,04,06,9.10
2012,10,11,04,07,9.10
2012,10,11,04,08,9.10
2012,10,11,04,09,9.10
2012,10,11,04,10,9.10
2012,10,11,04,11,9.10
2012,10,11,04,12,9.10
2012,10,11,04,13,9.10
2012,10,11,04,14,9.10
2012,10,11,04,15,9.10
2012,10,11,04,16,9.10
2012,10,11,04,17,9.10
2012,10,11,04,18,9.10
2012,10,11,04,19,9.10
2012,10,11,04,20,9.10
2012,10,11,04,21,9.10
2012,10,11,04,22,9.10
2012,10,11,04,23,9.10
2012,10,11,04,24,9.10
2012,10,11,04,25,9.10
2012,10,11,04,26,9.10
2012,10,11,04,27,9.10
2012,10,11,04,28,9.10
2012,10,11,04,29,9.10
2012,10,11,04,30,9.10
2012,10,11,04,31,9.10
2012,10,11,04,32,9.10
2012,10,11,04,33,9.10
2012,10,11,04,34,9.10
2012,10,11,04,35,9.10
2012,10,11,04,36,9.10
2012,10,11,04,37,9.10
2012,10,11,04,38,9.10
2012,10,11,04,39,9.10
2012,10,11,04,40,9.10
2012,10,11,04,41,9.10
2012,10,11,04,42,9.10
2012,10,11,04,43,9.10
2012,10,11,04,44,9.10
2012,10,11,04,45,9.10
2012,10,11,04,46,9.10
2012,10,11,04,47,9.10
2012,10,11,04,48,9.10
2012,10,11,04,49,9.10
2012,10,11,04,50,9.10
2012,10,11,04,51,9.10
2012,10,11,04,52,9.10
2012,10,11,04,53,9.10
2012,10,11,04,54,9.10
2012,10,11,04,55,9.10
2012,10,11,04,56,9.10
2012,10,11,04,57,9.00
2012,10,11,04,58,9.00
2012,10,11,04,59,9.00
2012,10,11,05,00,9.00
2012,10,11,05,01,9.00
2012,10,11,05,02,9.00
2012,10,11,05,03,9.00
2012,10,11,05,04,9.00
2012,10,11,05,05,9.10
2012,10,11,05,06,9.10
2012,10,11,05,07,9.10
2012,10,11,05,08,9.10
2012,10,11,05,09,9.10
2012,10,11,05,10,9.10
2012,10,11,05,11,9.10
2012,10,11,05,12,9.10
2012,10,11,05,13,9.10
2012,10,11,05,14,9.10
2012,10,11,05,15,9.10
2012,10,11,05,16,9.10
2012,10,11,05,17,9.00
2012,10,11,05,18,9.00
2012,10,11,05,19,9.00
2012,10,11,05,20,9.00
2012,10,11,05,21,9.00
2012,10,11,05,22,9.00
2012,10,11,05,23,9.00
2012,10,11,05,24,9.00
2012,10,11,05,25,9.00
2012,10,11,05,26,9.00
2012,10,11,05,27,8.90
2012,10,11,05,28,8.90
2012,10,11,05,29,8.90
2012,10,11,05,30,8.90
2012,10,11,05,31,8.90
2012,10,11,05,32,8.90
2012,10,11,05,33,8.90
2012,10,11,05,34,8.90
2012,10,11,05,35,8.90
2012,10,11,05,36,8.90
2012,10,11,05,37,9.00
2012,10,11,05,38,9.00
2012,10,11,05,39,9.00
2012,10,11,05,40,9.00
2012,10,11,05,41,9.00
2012,10,11,05,42,9.00
2012,10,11,05,43,9.00
2012,10,11,05,44,9.00
2012,10,11,05,45,9.00
2012,10,11,05,46,9.00
2012,10,11,05,47,9.00
2012,10,11,05,48,9.00
2012,10,11,05,49,9.00
2012,10,11,05,50,9.00
2012,10,11,05,51,8.90
2012,10,11,05,52,9.00
2012,10,11,05,53,9.00
2012,10,11,05,54,9.00
2012,10,11,05,55,9.00
2012,10,11,05,56,9.00
2012,10,11,05,57,9.00
2012,10,11,05,58,9.00
2012,10,11,05,59,9.00
2012,10,11,06,00,9.00
2012,10,11,06,01,9.00
2012,10,11,06,02,8.90
2012,10,11,06,03,9.00
2012,10,11,06,04,9.00
2012,10,11,06,05,9.00
2012,10,11,06,06,9.00
2012,10,11,06,07,9.00
2012,10,11,06,08,9.00
2012,10,11,06,09,9.00
2012,10,11,06,10,9.00
2012,10,11,06,11,9.00
2012,10,11,06,12,9.00
2012,10,11,06,13,8.90
2012,10,11,06,14,8.90
2012,10,11,06,15,8.90
2012,10,11,06,16,9.00
2012,10,11,06,17,9.00
2012,10,11,06,18,9.00
2012,10,11,06,19,9.00
2012,10,11,06,20,9.00
2012,10,11,06,21,8.90
2012,10,11,06,22,8.90
2012,10,11,06,23,8.90
2012,10,11,06,24,8.90
2012,10,11,06,25,8.90
2012,10,11,06,26,8.90
2012,10,11,06,27,8.90
2012,10,11,06,28,8.90
2012,10,11,06,29,8.90
2012,10,11,06,30,8.90
2012,10,11,06,31,8.90
2012,10,11,06,32,8.90
2012,10,11,06,33,8.90
2012,10,11,06,34,8.90
2012,10,11,06,35,8.90
2012,10,11,06,36,8.80
2012,10,11,06,37,8.80
2012,10,11,06,38,8.80
2012,10,11,06,39,8.80
2012,10,11,06,40,8.90
2012,10,11,06,41,8.90
2012,10,11,06,42,8.90
2012,10,11,06,43,8.90
2012,10,11,06,44,8.90
2012,10,11,06,45,8.90
2012,10,11,06,46,8.90
2012,10,11,06,47,8.90
2012,10,11,06,48,8.90
2012,10,11,06,49,8.90
2012,10,11,06,50,8.90
2012,10,11,06,51,8.90
2012,10,11,06,52,8.90
2012,10,11,06,53,8.90
2012,10,11,06,54,8.90
2012,10,11,06,55,8.90
2012,10,11,06,56,8.90
2012,10,11,06,57,8.90
2012,10,11,06,58,8.80
2012,10,11,06,59,8.80
2012,10,11,07,00,8.80
2012,10,11,07,01,8.80
2012,10,11,07,02,8.80
2012,10,11,07,03,8.80
2012,10,11,07,04,8.80
2012,10,11,07,05,8.80
2012,10,11,07,06,8.80
2012,10,11,07,07,8.80
2012,10,11,07,08,8.80
2012,10,11,07,09,8.80
2012,10,11,07,10,8.80
2012,10,11,07,11,8.80
2012,10,11,07,12,8.80
2012,10,11,07,13,8.80
2012,10,11,07,14,8.80
2012,10,11,07,15,8.80
2012,10,11,07,16,8.80
2012,10,11,07,17,8.80
2012,10,11,07,18,8.80
2012,10,11,07,19,8.80
2012,10,11,07,20,8.80
2012,10,11,07,21,8.80
2012,10,11,07,22,8.80
2012,10,11,07,23,8.80
2012,10,11,07,24,8.80
2012,10,11,07,25,8.80
2012,10,11,07,26,8.70
2012,10,11,07,27,8.70
2012,10,11,07,28,8.70
2012,10,11,07,29,8.70
2012,10,11,07,30,8.80
2012,10,11,07,31,8.70
2012,10,11,07,32,8.80
2012,10,11,07,33,8.80
2012,10,11,07,34,8.80
2012,10,11,07,35,8.80
2012,10,11,07,36,8.80
2012,10,11,07,37,8.80
2012,10,11,07,38,8.80
2012,10,11,07,39,8.80
2012,10,11,07,40,8.80
2012,10,11,07,41,8.80
2012,10,11,07,42,8.80
2012,10,11,07,43,8.80
2012,10,11,07,44,8.80
2012,10,11,07,45,8.80
2012,10,11,07,46,8.70
2012,10,11,07,47,8.70
2012,10,11,07,48,8.70
2012,10,11,07,49,8.70
2012,10,11,07,50,8.70
2012,10,11,07,51,8.70
2012,10,11,07,52,8.70
2012,10,11,07,53,8.70
2012,10,11,07,54,8.70
2012,10,11,07,55,8.70
2012,10,11,07,56,8.70
2012,10,11,07,57,8.70
2012,10,11,07,58,8.70
2012,10,11,07,59,8.70
2012,10,11,08,00,8.70
2012,10,11,08,01,8.70
2012,10,11,08,02,8.70
2012,10,11,08,03,8.70
2012,10,11,08,04,8.70
2012,10,11,08,05,8.60
2012,10,11,08,06,8.60
2012,10,11,08,07,8.60
2012,10,11,08,08,8.60
2012,10,11,08,09,8.60
2012,10,11,08,10,8.70
2012,10,11,08,11,8.70
2012,10,11,08,12,8.70
2012,10,11,08,13,8.70
2012,10,11,08,14,8.70
2012,10,11,08,15,8.70
2012,10,11,08,16,8.70
2012,10,11,08,17,8.70
2012,10,11,08,18,8.70
2012,10,11,08,19,8.70
2012,10,11,08,20,8.70
2012,10,11,08,21,8.70
2012,10,11,08,22,8.70
2012,10,11,08,23,8.70
2012,10,11,08,24,8.70
2012,10,11,08,25,8.70
2012,10,11,08,26,8.70
2012,10,11,08,27,8.70
2012,10,11,08,28,8.70
2012,10,11,08,29,8.70
2012,10,11,08,30,8.70
2012,10,11,08,31,8.70
2012,10,11,08,32,8.70
2012,10,11,08,33,8.70
2012,10,11,08,34,8.80
2012,10,11,08,35,8.80
2012,10,11,08,36,8.80
2012,10,11,08,37,8.80
2012,10,11,08,38,8.80
2012,10,11,08,39,8.80
2012,10,11,08,40,8.80
2012,10,11,08,41,8.80
2012,10,11,08,42,8.80
2012,10,11,08,43,8.80
2012,10,11,08,44,8.80
2012,10,11,08,45,8.80
2012,10,11,08,46,8.80
2012,10,11,08,47,8.80
2012,10,11,08,48,8.80
2012,10,11,08,49,8.80
2012,10,11,08,50,8.80
2012,10,11,08,51,8.80
2012,10,11,08,52,8.80
2012,10,11,08,53,8.80
2012,10,11,08,54,8.80
2012,10,11,08,55,8.80
2012,10,11,08,56,8.80
2012,10,11,08,57,8.80
2012,10,11,08,58,8.80
2012,10,11,08,59,8.80
2012,10,11,09,00,8.90
2012,10,11,09,01,8.90
2012,10,11,09,02,8.90
2012,10,11,09,03,8.90
2012,10,11,09,04,8.90
2012,10,11,09,05,8.90
2012,10,11,09,06,8.90
2012,10,11,09,07,8.90
2012,10,11,09,08,8.90
2012,10,11,09,09,9.00
2012,10,11,09,10,9.00
2012,10,11,09,11,9.00
2012,10,11,09,12,8.90
2012,10,11,09,13,8.90
2012,10,11,09,14,9.00
2012,10,11,09,15,9.00
2012,10,11,09,16,9.00
2012,10,11,09,17,9.00
2012,10,11,09,18,9.00
2012,10,11,09,19,9.10
2012,10,11,09,20,9.10
2012,10,11,09,21,9.10
2012,10,11,09,22,9.10
2012,10,11,09,23,9.10
2012,10,11,09,24,9.10
2012,10,11,09,25,9.10
2012,10,11,09,26,9.10
2012,10,11,09,27,9.10
2012,10,11,09,28,9.10
2012,10,11,09,29,9.10
2012,10,11,09,30,9.10
2012,10,11,09,31,9.10
2012,10,11,09,32,9.10
2012,10,11,09,33,9.20
2012,10,11,09,34,9.20
2012,10,11,09,35,9.20
2012,10,11,09,36,9.10
2012,10,11,09,37,9.10
2012,10,11,09,38,9.10
2012,10,11,09,39,9.10
2012,10,11,09,40,9.10
2012,10,11,09,41,9.10
2012,10,11,09,42,9.10
2012,10,11,09,43,9.10
2012,10,11,09,44,9.10
2012,10,11,09,45,9.10
2012,10,11,09,46,9.10
2012,10,11,09,47,9.10
2012,10,11,09,48,9.10
2012,10,11,09,49,9.20
2012,10,11,09,50,9.20
2012,10,11,09,51,9.20
2012,10,11,09,52,9.20
2012,10,11,09,53,9.20
2012,10,11,09,54,9.20
2012,10,11,09,55,9.20
2012,10,11,09,56,9.20
2012,10,11,09,57,9.20
2012,10,11,09,58,9.20
2012,10,11,09,59,9.20
2012,10,11,10,00,9.20
2012,10,11,10,01,9.20
2012,10,11,10,02,9.20
2012,10,11,10,03,9.20
2012,10,11,10,04,9.20
2012,10,11,10,05,9.20
2012,10,11,10,06,9.20
2012,10,11,10,07,9.20
2012,10,11,10,08,9.30
2012,10,11,10,09,9.30
2012,10,11,10,10,9.30
2012,10,11,10,11,9.30
2012,10,11,10,12,9.30
2012,10,11,10,13,9.30
2012,10,11,10,14,9.30
2012,10,11,10,15,9.30
2012,10,11,10,16,9.30
2012,10,11,10,17,9.30
2012,10,11,10,18,9.40
2012,10,11,10,19,9.40
2012,10,11,10,20,9.40
2012,10,11,10,21,9.40
2012,10,11,10,22,9.40
2012,10,11,10,23,9.40
2012,10,11,10,24,9.40
2012,10,11,10,25,9.40
2012,10,11,10,26,9.40
2012,10,11,10,27,9.40
2012,10,11,10,28,9.50
2012,10,11,10,29,9.50
2012,10,11,10,30,9.50
2012,10,11,10,31,9.50
2012,10,11,10,32,9.50
2012,10,11,10,33,9.50
2012,10,11,10,34,9.50
2012,10,11,10,35,9.50
2012,10,11,10,36,9.50
2012,10,11,10,37,9.50
2012,10,11,10,38,9.50
2012,10,11,10,39,9.60
2012,10,11,10,40,9.60
2012,10,11,10,41,9.60
2012,10,11,10,42,9.60
2012,10,11,10,43,9.60
2012,10,11,10,44,9.60
2012,10,11,10,45,9.60
2012,10,11,10,46,9.60
2012,10,11,10,47,9.60
2012,10,11,10,48,9.60
2012,10,11,10,49,9.60
2012,10,11,10,50,9.60
2012,10,11,10,51,9.70
2012,10,11,10,52,9.70
2012,10,11,10,53,9.70
2012,10,11,10,54,9.70
2012,10,11,10,55,9.80
2012,10,11,10,56,9.80
2012,10,11,10,57,9.80
2012,10,11,10,58,9.80
2012,10,11,10,59,9.80
2012,10,11,11,00,9.90
2012,10,11,11,01,9.90
2012,10,11,11,02,9.90
2012,10,11,11,03,9.90
2012,10,11,11,04,9.90
2012,10,11,11,05,9.90
2012,10,11,11,06,9.90
2012,10,11,11,07,9.90
2012,10,11,11,08,9.90
2012,10,11,11,09,10.00
2012,10,11,11,10,10.00
2012,10,11,11,11,10.00
2012,10,11,11,12,10.10
2012,10,11,11,13,10.10
2012,10,11,11,14,10.10
2012,10,11,11,15,10.20
2012,10,11,11,16,10.20
2012,10,11,11,17,10.20
2012,10,11,11,18,10.30
2012,10,11,11,19,10.30
2012,10,11,11,20,10.40
2012,10,11,11,21,10.40
2012,10,11,11,22,10.40
2012,10,11,11,23,10.40
2012,10,11,11,24,10.40
2012,10,11,11,25,10.40
2012,10,11,11,26,10.40
2012,10,11,11,27,10.40
2012,10,11,11,28,10.40
2012,10,11,11,29,10.40
2012,10,11,11,30,10.40
2012,10,11,11,31,10.40
2012,10,11,11,32,10.40
2012,10,11,11,33,10.40
2012,10,11,11,34,10.40
2012,10,11,11,35,10.40
2012,10,11,11,36,10.50
2012,10,11,11,37,10.50
2012,10,11,11,38,10.40
2012,10,11,11,39,10.40
2012,10,11,11,40,10.40
2012,10,11,11,41,10.40
2012,10,11,11,42,10.50
2012,10,11,11,43,10.50
2012,10,11,11,44,10.60
2012,10,11,11,45,10.60
2012,10,11,11,46,10.60
2012,10,11,11,47,10.60
2012,10,11,11,48,10.60
2012,10,11,11,49,10.60
2012,10,11,11,50,10.60
2012,10,11,11,51,10.60
2012,10,11,11,52,10.60
2012,10,11,11,53,10.60
2012,10,11,11,54,10.60
2012,10,11,11,55,10.60
2012,10,11,11,56,10.60
2012,10,11,11,57,10.60
2012,10,11,11,58,10.60
2012,10,11,11,59,10.50
2012,10,11,12,00,10.60
2012,10,11,12,01,10.60
2012,10,11,12,02,10.50
2012,10,11,12,03,10.50
2012,10,11,12,04,10.50
2012,10,11,12,05,10.60
2012,10,11,12,06,10.60
2012,10,11,12,07,10.60
2012,10,11,12,08,10.60
2012,10,11,12,09,10.60
2012,10,11,12,10,10.50
2012,10,11,12,11,10.50
2012,10,11,12,12,10.40
2012,10,11,12,13,10.40
2012,10,11,12,14,10.40
2012,10,11,12,15,10.30
2012,10,11,12,16,10.30
2012,10,11,12,17,10.30
2012,10,11,12,18,10.30
2012,10,11,12,19,10.30
2012,10,11,12,20,10.30
2012,10,11,12,21,10.30
2012,10,11,12,22,10.40
2012,10,11,12,23,10.40
2012,10,11,12,24,10.40
2012,10,11,12,25,10.30
2012,10,11,12,26,10.30
2012,10,11,12,27,10.30
2012,10,11,12,28,10.30
2012,10,11,12,29,10.30
2012,10,11,12,30,10.30
2012,10,11,12,31,10.30
2012,10,11,12,32,10.30
2012,10,11,12,33,10.30
2012,10,11,12,34,10.30
2012,10,11,12,35,10.30
2012,10,11,12,36,10.30
2012,10,11,12,37,10.30
2012,10,11,12,38,10.30
2012,10,11,12,39,10.30
2012,10,11,12,40,10.30
2012,10,11,12,41,10.30
2012,10,11,12,42,10.30
2012,10,11,12,43,10.30
2012,10,11,12,44,10.30
2012,10,11,12,45,10.30
2012,10,11,12,46,10.20
2012,10,11,12,47,10.20
2012,10,11,12,48,10.10
2012,10,11,12,49,10.10
2012,10,11,12,50,10.10
2012,10,11,12,51,10.20
2012,10,11,12,52,10.20
2012,10,11,12,53,10.20
2012,10,11,12,54,10.20
2012,10,11,12,55,10.20
2012,10,11,12,56,10.20
2012,10,11,12,57,10.20
2012,10,11,12,58,10.20
2012,10,11,12,59,10.20
2012,10,11,13,00,10.20
2012,10,11,13,01,10.20
2012,10,11,13,02,10.20
2012,10,11,13,03,10.20
2012,10,11,13,04,10.20
2012,10,11,13,05,10.20
2012,10,11,13,06,10.20
2012,10,11,13,07,10.20
2012,10,11,13,08,10.20
2012,10,11,13,09,10.20
2012,10,11,13,10,10.20
2012,10,11,13,11,10.20
2012,10,11,13,12,10.20
2012,10,11,13,13,10.20
2012,10,11,13,14,10.30
2012,10,11,13,15,10.30
2012,10,11,13,16,10.30
2012,10,11,13,17,10.30
2012,10,11,13,18,10.30
2012,10,11,13,19,10.30
2012,10,11,13,20,10.30
2012,10,11,13,21,10.30
2012,10,11,13,22,10.30
2012,10,11,13,23,10.30
2012,10,11,13,24,10.30
2012,10,11,13,25,10.30
2012,10,11,13,26,10.30
2012,10,11,13,27,10.30
2012,10,11,13,28,10.30
2012,10,11,13,29,10.30
2012,10,11,13,30,10.30
2012,10,11,13,31,10.30
2012,10,11,13,32,10.30
2012,10,11,13,33,10.30
2012,10,11,13,34,10.30
2012,10,11,13,35,10.30
2012,10,11,13,36,10.30
2012,10,11,13,37,10.30
2012,10,11,13,38,10.30
2012,10,11,13,39,10.30
2012,10,11,13,40,10.30
2012,10,11,13,41,10.30
2012,10,11,13,42,10.30
2012,10,11,13,43,10.30
2012,10,11,13,44,10.30
2012,10,11,13,45,10.30
2012,10,11,13,46,10.30
2012,10,11,13,47,10.30
2012,10,11,13,48,10.30
2012,10,11,13,49,10.30
2012,10,11,13,50,10.40
2012,10,11,13,51,10.40
2012,10,11,13,52,10.40
2012,10,11,13,53,10.40
2012,10,11,13,54,10.40
2012,10,11,13,55,10.40
2012,10,11,13,56,10.40
2012,10,11,13,57,10.40
2012,10,11,13,58,10.40
2012,10,11,13,59,10.40
2012,10,11,14,00,10.40
2012,10,11,14,01,10.30
2012,10,11,14,02,10.30
2012,10,11,14,03,10.30
2012,10,11,14,04,10.40
2012,10,11,14,05,10.40
2012,10,11,14,06,10.40
2012,10,11,14,07,10.50
2012,10,11,14,08,10.50
2012,10,11,14,09,10.50
2012,10,11,14,10,10.60
2012,10,11,14,11,10.60
2012,10,11,14,12,10.60
2012,10,11,14,13,10.60
2012,10,11,14,14,10.60
2012,10,11,14,15,10.50
2012,10,11,14,16,10.60
2012,10,11,14,17,10.60
2012,10,11,14,18,10.60
2012,10,11,14,19,10.60
2012,10,11,14,20,10.60
2012,10,11,14,21,10.60
2012,10,11,14,22,10.60
2012,10,11,14,23,10.60
2012,10,11,14,24,10.70
2012,10,11,14,25,10.70
2012,10,11,14,26,10.70
2012,10,11,14,27,10.80
2012,10,11,14,28,10.70
2012,10,11,14,29,10.70
2012,10,11,14,30,10.70
2012,10,11,14,31,10.70
2012,10,11,14,32,10.70
2012,10,11,14,33,10.70
2012,10,11,14,34,10.70
2012,10,11,14,35,10.70
2012,10,11,14,36,10.70
2012,10,11,14,37,10.70
2012,10,11,14,38,10.60
2012,10,11,14,39,10.60
2012,10,11,14,40,10.60
2012,10,11,14,41,10.60
2012,10,11,14,42,10.60
2012,10,11,14,43,10.60
2012,10,11,14,44,10.60
2012,10,11,14,45,10.60
2012,10,11,14,46,10.60
2012,10,11,14,47,10.60
2012,10,11,14,48,10.70
2012,10,11,14,49,10.70
2012,10,11,14,50,10.70
2012,10,11,14,51,10.70
2012,10,11,14,52,10.70
2012,10,11,14,53,10.70
2012,10,11,14,54,10.70
2012,10,11,14,55,10.70
2012,10,11,14,56,10.70
2012,10,11,14,57,10.80
2012,10,11,14,58,10.80
2012,10,11,14,59,10.80
2012,10,11,15,00,10.80
2012,10,11,15,01,10.80
2012,10,11,15,02,10.80
2012,10,11,15,03,10.70
2012,10,11,15,04,10.70
2012,10,11,15,05,10.60
2012,10,11,15,06,10.60
2012,10,11,15,07,10.60
2012,10,11,15,08,10.60
2012,10,11,15,09,10.60
2012,10,11,15,10,10.60
2012,10,11,15,11,10.60
2012,10,11,15,12,10.60
2012,10,11,15,13,10.60
2012,10,11,15,14,10.60
2012,10,11,15,15,10.50
2012,10,11,15,16,10.50
2012,10,11,15,17,10.50
2012,10,11,15,18,10.50
2012,10,11,15,19,10.50
2012,10,11,15,20,10.40
2012,10,11,15,21,10.40
2012,10,11,15,22,10.40
2012,10,11,15,23,10.50
2012,10,11,15,24,10.50
2012,10,11,15,25,10.50
2012,10,11,15,26,10.50
2012,10,11,15,27,10.50
2012,10,11,15,28,10.50
2012,10,11,15,29,10.50
2012,10,11,15,30,10.50
2012,10,11,15,31,10.50
2012,10,11,15,32,10.50
2012,10,11,15,33,10.60
2012,10,11,15,34,10.60
2012,10,11,15,35,10.60
2012,10,11,15,36,10.60
2012,10,11,15,37,10.60
2012,10,11,15,38,10.60
2012,10,11,15,39,10.60
2012,10,11,15,40,10.50
2012,10,11,15,41,10.50
2012,10,11,15,42,10.50
2012,10,11,15,43,10.50
2012,10,11,15,44,10.50
2012,10,11,15,45,10.50
2012,10,11,15,46,10.50
2012,10,11,15,47,10.50
2012,10,11,15,48,10.50
2012,10,11,15,49,10.50
2012,10,11,15,50,10.50
2012,10,11,15,51,10.40
2012,10,11,15,52,10.40
2012,10,11,15,53,10.50
2012,10,11,15,54,10.50
2012,10,11,15,55,10.60
2012,10,11,15,56,10.50
2012,10,11,15,57,10.50
2012,10,11,15,58,10.50
2012,10,11,15,59,10.50
2012,10,11,16,00,10.50
2012,10,11,16,01,10.50
2012,10,11,16,02,10.60
2012,10,11,16,03,10.60
2012,10,11,16,04,10.60
2012,10,11,16,05,10.60
2012,10,11,16,06,10.60
2012,10,11,16,07,10.60
2012,10,11,16,08,10.60
2012,10,11,16,09,10.60
2012,10,11,16,10,10.60
2012,10,11,16,11,10.70
2012,10,11,16,12,10.60
2012,10,11,16,13,10.60
2012,10,11,16,14,10.60
2012,10,11,16,15,10.60
2012,10,11,16,16,10.60
2012,10,11,16,17,10.60
2012,10,11,16,18,10.60
2012,10,11,16,19,10.50
2012,10,11,16,20,10.50
2012,10,11,16,21,10.40
2012,10,11,16,22,10.40
2012,10,11,16,23,10.50
2012,10,11,16,24,10.50
2012,10,11,16,25,10.50
2012,10,11,16,26,10.50
2012,10,11,16,27,10.40
2012,10,11,16,28,10.40
2012,10,11,16,29,10.40
2012,10,11,16,30,10.40
2012,10,11,16,31,10.40
2012,10,11,16,32,10.40
2012,10,11,16,33,10.50
2012,10,11,16,34,10.50
2012,10,11,16,35,10.50
2012,10,11,16,36,10.50
2012,10,11,16,37,10.50
2012,10,11,16,38,10.50
2012,10,11,16,39,10.50
2012,10,11,16,40,10.50
2012,10,11,16,41,10.50
2012,10,11,16,42,10.40
2012,10,11,16,43,10.40
2012,10,11,16,44,10.40
2012,10,11,16,45,10.40
2012,10,11,16,46,10.40
2012,10,11,16,47,10.40
2012,10,11,16,48,10.40
2012,10,11,16,49,10.40
2012,10,11,16,50,10.40
2012,10,11,16,51,10.50
2012,10,11,16,52,10.50
2012,10,11,16,53,10.50
2012,10,11,16,54,10.50
2012,10,11,16,55,10.50
2012,10,11,16,56,10.60
2012,10,11,16,57,10.50
2012,10,11,16,58,10.50
2012,10,11,16,59,10.50
2012,10,11,17,00,10.50
2012,10,11,17,01,10.50
2012,10,11,17,02,10.50
2012,10,11,17,03,10.50
2012,10,11,17,04,10.50
2012,10,11,17,05,10.50
2012,10,11,17,06,10.50
2012,10,11,17,07,10.60
2012,10,11,17,08,10.50
2012,10,11,17,09,10.50
2012,10,11,17,10,10.50
2012,10,11,17,11,10.50
2012,10,11,17,12,10.50
2012,10,11,17,13,10.40
2012,10,11,17,14,10.40
2012,10,11,17,15,10.40
2012,10,11,17,16,10.40
2012,10,11,17,17,10.40
2012,10,11,17,18,10.40
2012,10,11,17,19,10.40
2012,10,11,17,20,10.40
2012,10,11,17,21,10.30
2012,10,11,17,22,10.30
2012,10,11,17,23,10.30
2012,10,11,17,24,10.30
2012,10,11,17,25,10.30
2012,10,11,17,26,10.30
2012,10,11,17,27,10.30
2012,10,11,17,28,10.30
2012,10,11,17,29,10.30
2012,10,11,17,30,10.30
2012,10,11,17,31,10.30
2012,10,11,17,32,10.30
2012,10,11,17,33,10.30
2012,10,11,17,34,10.40
2012,10,11,17,35,10.30
2012,10,11,17,36,10.30
2012,10,11,17,37,10.30
2012,10,11,17,38,10.30
2012,10,11,17,39,10.30
2012,10,11,17,40,10.30
2012,10,11,17,41,10.30
2012,10,11,17,42,10.30
2012,10,11,17,43,10.30
2012,10,11,17,44,10.30
2012,10,11,17,45,10.30
2012,10,11,17,46,10.30
2012,10,11,17,47,10.30
2012,10,11,17,48,10.30